STARLINK-11235 [DTC]

Last updated on Sat Sep 28 2024 00:02:03 GMT+0000 (Coordinated Universal Time)

1 60726U 24152G 24271.22314920 -.00007610 00000+0 -58055-4 0 9996 2 60726 53.1606 201.3762 0001438 118.2572 241.8591 15.69689182 5962
UTC large
Height (km)
Speed (km/s)
/
Latitude / Longitude
Inclination (degrees)
Orbital Period (minutes)
Azimuth
Elevation
Range (km)
Doppler Factor

Next 0 passes for location: London (51.5072 / 0.1276)

Sorry there are no passes over London.